Regional Weather Roundup
Issued by NWS Charleston, WV

Home | Current Version | Previous Version | Graphics & Text | Print | Product List | Glossary On
Versions: 1 2 3 4 5 6 7 8 9 10 11 12 13 14 15 16 17 18 19 20 21 22 23 24 25 26 27 28 29 30 31 32 33 34 35 36 37 38 39 40 41 42 43 44 45 46 47 48 49 50
000
ASUS41 KRLX 171910
RWRRLX
West Virginia Regional Weather Roundup
National Weather Service Charleston WV
300 PM EDT THU AUG 17 2017

Note: "fair" indicates few or no clouds below 12,000 feet with no
significant weather and/or obstructions to visibility.

WVZ003-172000-
Northern Panhandle of West Virginia

CITY           SKY/WX    TMP DP  RH WIND       PRES   REMARKS
WHEELING       MOSUNNY   85  70  60 S12       29.92F
$$

WVZ009-172000-
Northwest West Virginia

CITY           SKY/WX    TMP DP  RH WIND       PRES   REMARKS
PARKERSBURG    TSTM      81  74  79 W17G32    29.95S VSB 1
$$

WVZ006-172000-
Western West Virginia

CITY           SKY/WX    TMP DP  RH WIND       PRES   REMARKS
HUNTINGTON     PTSUNNY   87  73  62 SW10      29.93F
$$

WVZ015-172000-
West Central West Virginia

CITY           SKY/WX    TMP DP  RH WIND       PRES   REMARKS
CHARLESTON     CLOUDY    88  71  57 SW18G30   29.95F
$$

WVZ022-031-172000-
North Central West Virginia

CITY           SKY/WX    TMP DP  RH WIND       PRES   REMARKS
CLARKSBURG     MOSUNNY   89  69  51 S12       29.95F
MORGANTOWN     PTSUNNY   87  68  52 SW9       29.96F
$$

WVZ025-035-042-045-172000-
Southern West Virginia

CITY           SKY/WX    TMP DP  RH WIND       PRES   REMARKS
BECKLEY        PTSUNNY   81  69  67 W8        30.06F
LOGAN            N/A     81  73  78 VRB6      30.01F
BLUEFIELD      PTSUNNY   81  67  62 W9        30.10F
LEWISBURG      MOSUNNY   84  67  57 S8        30.05F
$$

WVZ047-172000-
Northern Mountains of West Virginia

CITY           SKY/WX    TMP DP  RH WIND       PRES   REMARKS
ELKINS         SUNNY     86  66  51 CALM      30.02F
$$

WVZ052-172000-
Eastern Panhandle of West Virginia

CITY           SKY/WX    TMP DP  RH WIND       PRES   REMARKS
MARTINSBURG    MOSUNNY   86  72  62 S6        29.94F
PETERSBURG     SUNNY     92  73  53 CALM      29.94F HX 100
$$



USA.gov is the U.S. government's official web portal to all federal, state and local government web resources and services.